Location: Allos
(44.2333°N, 6.6333°E)
Time: 17:24:32
(UTC+00:00)

Nadezhda 3 Rocket - Pass Details

Date: 01 December 2020
Orbit: 956 x 1000 km, 82.9° (Epoch: 22 January)

Event Time Altitude Azimuth Distance (km) Brightness Sun altitude
Rises 17:20:30 0° 167° (SSE) 3,704 7.1 -14.7°
Reaches altitude 10° 17:23:06 10° 162° (SSE) 2,762 6.4 -15.2°
Maximum altitude 17:29:08 48° 90° (E) 1,293 4.2 -16.2°
Drops below altitude 10° 17:35:12 10° 19° (NNE) 2,777 6.1 -17.3°
Sets 17:37:49 0° 14° (NNE) 3,728 6.8 -17.7°
